Location: Cilca Lake Dam
(39.8951°N, 89.7351°W)
Time: 06:45:26
(UTC+00:00)

Daily predictions for brighter satellites

Satellite Brightness Start Highest point End
(mag) Time Altitude Azimuth Time Altitude Azimuth Time Altitude Azimuth
Radarsat Rocket 4.2 23:16:05 10° SSE 23:22:15 83° WSW 23:28:07 10° NNW
Cosmos 1328 3.8 23:21:14 10° N 23:25:12 88° W 23:29:08 10° S
SMAP 3.0 23:21:17 10° SSE 23:25:55 81° ENE 23:30:35 10° N
Aureole 3 4.0 23:23:39 10° SE 23:26:11 22° E 23:28:35 10° NE
Cosmos 1939 Rocket 3.9 23:23:43 10° ESE 23:26:52 23° ENE 23:30:01 10° NNE
Cosmos 1741 Rocket 4.5 23:23:16 10° NNW 23:28:29 68° WSW 23:33:38 10° S
Cosmos 2228 2.9 23:25:04 10° S 23:29:17 75° E 23:33:33 10° N
Aureole 3 Rocket 3.8 23:26:05 10° SSE 23:29:25 30° E 23:33:44 10° NNE
Cosmos 1758 Rocket 3.6 23:25:44 10° N 23:30:08 88° E 23:34:28 10° S
Cosmos 1689 Rocket 3.4 23:28:56 10° NE 23:31:11 20° E 23:33:25 10° SSE
Milstar 3 4.1 23:25:06 10° SW 23:31:40 31° S 23:37:25 10° ESE
Helios 1A Rocket 4.2 23:32:24 10° ESE 23:35:28 21° ENE 23:38:33 10° NNE
CZ-2C R/B 4.4 23:31:30 10° ESE 23:35:45 22° ENE 23:39:54 10° NNE
Cosmos 1606 Rocket 3.6 23:34:38 10° S 23:38:59 89° WSW 23:43:25 10° N
Timation 2 Rocket 4.2 23:35:43 10° NNW 23:42:18 61° ENE 23:49:02 10° SE
Meteor 2-21 Rocket 4.4 23:38:24 10° N 23:44:35 75° E 23:50:41 10° SSE
Cosmos 1400 Rocket 3.1 23:40:42 10° S 23:44:39 49° E 23:48:37 10° NNE
Cosmos 2219 3.7 23:39:29 10° N 23:44:55 41° ENE 23:50:19 10° SE
Meteor 2-10 Rocket 4.4 23:41:01 10° SE 23:45:24 26° E 23:49:40 10° NE
Okean-O 3.6 23:43:32 10° SE 23:47:13 26° ENE 23:50:53 10° NNE
SKYMED 2 3.7 23:46:30 10° NNE 23:50:45 52° E 23:54:59 10° S
CZ-4 R/B 2.4 23:48:19 10° ESE 23:51:25 23° ENE 23:54:31 10° NNE
Cosmos 1892 3.7 23:49:28 10° NNE 23:52:45 25° ENE 23:56:00 10° SE
USA 281 3.6 23:46:17 10° SSE 23:52:49 72° WSW 23:59:24 10° NNW
OAO 2 Rocket 4.2 23:48:51 10° SW 23:53:29 38° SSE 23:57:25 13° ESE
Cosmos 1408 4.1 23:51:46 10° NNE 23:54:10 16° ENE 23:54:58 16° E
PSLV R/B 4.2 23:51:44 10° NNE 23:55:47 47° E 23:59:45 10° S
Cosmos 2058 4.1 23:53:07 10° NNE 23:56:17 21° ENE 23:59:25 10° SE
